Zurück zum Katalog

USA 575

AktivMilitärVLEO
NORAD 67487·PAYLOAD·🇺🇸 United States

Gestartet Jan 17, 2026 von Vandenberg Space Force Base

Loading…

Nächste Überflüge (nächste 24 Stunden)

TLE

VeraltetSource: Mike McCants

Epoche: Aug 2, 2026, 20:45 UTC

1 67487U 26011D   26214.86526069 0.00000000  00000-0  00000-0 0    02
2 67487  70.0170 119.8214 0002000 341.0200  18.9799 14.96713362    02

Verfolge USA 575 in Echtzeit mit AllMySat

Download on the App Store